Regional Weather Roundup
Issued by NWS

Home | Current Version | Previous Version | Text Only | Print | Product List | Glossary On
Versions: 1 2 3 4 5 6 7 8 9 10 11 12 13 14 15 16 17 18 19 20 21 22 23 24 25 26 27 28 29 30 31 32 33 34 35 36 37 38 39 40 41 42 43 44 45 46 47 48 49 50
000
ASUS44 KJAN 180210
RWRMS

MISSISSIPPI HOURLY WEATHER ROUNDUP
NATIONAL WEATHER SERVICE JACKSON MS
900 PM CDT THU APR 17 2014

NOTE: "FAIR: INDICATES FEW OR NO CLOUDS BELOW 12,000 FEET WITH NO
SIGNIFICANT WEATHER AND/OR OBSTRUCTIONS TO VISIBILITY.

MSZ001>002-007>008-010>013-018>021-025>028-034>036-180300-
NORTHWEST MISSISSIPPI

CITY           SKY/WX    TMP DP  RH WIND       PRES   REMARKS
CLARKSDALE       N/A     63  50  63 CALM      30.23R
CLEVELAND      FAIR      63  51  66 E5        30.20R
GREENWOOD      CLOUDY    60  49  66 SE5       30.21R
GREENVILLE     CLOUDY    60  53  77 NE3       30.19R
GRENADA        CLOUDY    59  52  77 CALM      30.23R
OLIVE BRANCH   CLEAR     61  43  51 CALM      30.23S
OXFORD         FAIR      57  48  72 MISG      30.25R
TUNICA         CLOUDY    61  48  63 CALM      30.23R
$$

MSZ003>006-009-014>017-022>024-029>033-037>039-180300-
NORTHEAST MISSISSIPPI

CITY           SKY/WX    TMP DP  RH WIND       PRES   REMARKS
BELMONT        MOCLDY    60  45  59 CALM      30.23R
COLUMBUS AFB   CLEAR     60  51  70 CALM      30.22R
CORINTH        CLOUDY    59  45  58 CALM      30.23S
GOLDN TRIANGLE CLOUDY    59  48  67 CALM      30.24S
STARKVILLE     FAIR      55  52  88 CALM      30.22R
TUPELO         CLOUDY    61  48  62 CALM      30.23R
$$

MSZ040-058-180300-
CENTRAL MISSISSIPPI

CITY           SKY/WX    TMP DP  RH WIND       PRES   REMARKS
JACKSON INTL   CLOUDY    58  53  84 NE3       30.18S
JACKSON HAWKNS CLOUDY    62  50  64 CALM      30.19R
MERIDIAN KEY   CLOUDY    59  51  75 NE3       30.19F
MERIDIAN NAS   CLOUDY    58  52  80 CALM      30.20F
RAYMOND        FAIR      57  52  82 CALM      30.18R
VICKSBURG      CLOUDY    63  56  78 CALM      30.18S
$$

MSZ059>079-180300-
SOUTH MISSISSIPPI

CITY           SKY/WX    TMP DP  RH WIND       PRES   REMARKS
BROOKHAVEN     MOCLDY    59  55  88 CALM      30.17F
COLUMBIA       CLOUDY    59  55  88 MISG      30.15S
HATTIESBURG    CLOUDY    62  55  77 E6        30.17S
MCCOMB         CLOUDY    61  55  81 VRB3      30.15S
NATCHEZ        CLOUDY    59  54  82 N3        30.17R
PINE BELT      CLOUDY    61  54  77 NE3       30.18R
$$

MSZ080>082-180300-
COASTAL MISSISSIPPI

CITY           SKY/WX    TMP DP  RH WIND       PRES   REMARKS
BAY ST LOUIS   CLOUDY    63  57  82 CALM      30.14F
BILOXI         CLOUDY    66  59  77 E5        30.15S
PASCAGOULA     LGT RAIN  64  58  80 E7        30.16R
GULFPORT       LGT RAIN  67  59  75 E5        30.14F
$$



USA.gov is the U.S. government's official web portal to all federal, state and local government web resources and services.